User: anonymous   Login
Location: Erlenbrunn
(49.1717°N, 7.6142°E)
Time: 06:02:09
(UTC+00:00)
Language:

IRS-1C Rocket - Orbit

View from above orbital plane
View from above orbital plane
View from above satellite
View from above satellite

Ground track
Ground track

The orbit data is extracted from the following two-line orbital elements,

1 23753U 95072C   21058.82162089 -.00000052  00000-0 -21274-5 0  9995
2 23753  98.9619  85.0424 0002905 318.7594  41.3365 14.26597381310158
Epoch (UTC): 27 February 2021 19:43:08
Eccentricity: 0.0002905
inclination: 98.9619°
perigee height: 801 km
apogee height: 805 km
right ascension of ascending node: 85.0424°
argument of perigee: 318.7594°
revolutions per day: 14.26597381
mean anomaly at epoch: 41.3365°
orbit number at epoch: 31015

The dashed part of the orbit path shows where the satellite is in the earth's shadow,  

DLR